Showing default

ICEYE-X67, 66302

Orbit data source: Space-Track

ICEYE-X67, 66302 is an Emirian payload satellite in LEO that was launched on Sun, 02 Nov 2025 UTC via an FALCON 9 launch vehicle from the Air Force Eastern Test Range (AFETR). Payload-class satellites include a variety of spacecraft equipped with specific instruments for various scientific and technological missions. These include communications satellites like Starlink; space stations such as the ISS; scientific satellites like the Hubble; Earth observation satellites from companies like Planet Labs, Umbra, and HawkEye 360; GPS; miniature CubeSats for education and research; and military/defense satellites.

Loading next visibility...
Identifier
66302, 2025-248K
Orbit
LEO
Country
Flag of AEAE / UAE
Related business
None
Manufacturer
SP42
Mission
Operational Commercial Radar Imaging
Bus & Motor
ICEYE, Unknown motor
Mass
80 kg wet, 80 kg dry
Launch date (UTC)
2025-11-02 (8 months ago)
Launch vehicle
FALCON 9
Launch site
Air Force Eastern Test Range (AFETR)
Object type
Payload
Rocket body
Debris
Shape & HBR
Box + 1 Pan, 2.4 m
Radar Cross Section
0.776 m², Medium (>0.1 m² and < 1m²)

Expand to show TLE details & history
Last TLE update: 15 hours ago

TLE from 15 hours ago
0 ICEYE-X67
1 66302U 25248K   26171.23875294  .00001496  00000-0  10889-3 0  9994
2 66302  45.4054 117.0333 0005921  39.3501 320.7811 15.08979401 35988
Epoch: 2026-06-20T05:43Z
TLE epoch observation values (Epoch: 2026-06-20T05:43:48.254Z)
Latitude
0.00004°
Longitude
122.62605°
Altitude
536.189 km
Speed
7.598 km/s
True Right ascension
07h 48m 08s
True Declination
0° 00' 00"
Sunlit
Object was in daylight at epoch
Visualization orbit readout
Latitude
Unknown
Longitude
Unknown
Altitude
Unknown
Speed
Unknown
Apparent Right ascension
Unknown
Apparent Declination
Unknown
Sunlit
N/A
Visualization observer readout
Local Sidereal Time
07:17:06
Azimuth
Unknown
Elevation
Unknown
Doppler factor
Unknown
Orbital elements
Apogee altitude
544.943 km
Perigee altitude
536.749 km
Semi-major axis
6,918.983 km
Eccentricity
0.00059
Inclination
45.4054°
RAAN
117.0333°
Arg. of periapsis
39.3501°
True anomaly
320.73818°
Mean anomaly
320.7811°
Eccentric anomaly
320.75964°
Mean motion
3.7712 °/min
Orbital period
95.46 mins
BSTAR
0.00010889
Loading maneuver chart data...
Computing Atmospheric mass density...
Loading historical data...
Loading historical data...
Loading historical data...
Loading historical data...
Loading historical data...
Loading historical data...
Loading historical data...

Documentation

Showing up to 5 results
|